Preview of NWS' New Version of Forecast
This preview is not operational and should not be used for support decisions.
Latest weather observations around

Houston, Houston Hobby Airport (KHOU)

Using English Units (Switch to International System of Units)
Date/ Time (CDT) Wind (mph) Vis. (mi) Weather Sky Cond. Temp (°F) Rel. Humidity Wind Chill (°F) Heat Index (°F) Pressure Precip. (in)
Air Dwpt 6 hour Altimeter (inHg) Sea level (inHg) 1 hr 3 hr 6 hr
Max Min
Aug 25 23:53 SSE 6 10 Partly Cloudy SCT018 80 76     87%   85 29.83 29.83      
Aug 25 22:53 S 6 9 Partly Cloudy FEW012 SCT250 81 77     88%   88 29.82 29.83      
Aug 25 22:22 S 6 10 Partly Cloudy FEW012 SCT021 81 77     88%   88 29.82        
Aug 25 22:10 S 9 10 Mostly Cloudy SCT012 BKN019 81 77     88%   88 29.81        
Aug 25 22:00 S 8 10 Partly Cloudy SCT013 81 76     85%   87 29.81        
Aug 25 21:53 S 6 10 Cloudy OVC015 81 76     85%   87 29.81 29.82      
Aug 25 20:53 S 6 10 Mostly Cloudy BKN015 BKN250 82 76     82%   89 29.8 29.81      
Aug 25 20:34 SSE 8 10 Mostly Cloudy BKN015 82 75     79%   89 29.78        
Aug 25 19:53 S 10 10 Mostly Cloudy FEW020 FEW150 BKN250 82 75     79%   89 29.77 29.79      
Aug 25 18:53 S 11 10 Mostly Cloudy FEW020 FEW160 BKN250 83 74     74%   89 29.79 29.8     1
Aug 25 17:53 S 9 10 Mostly Cloudy FEW050 SCT100 SCT160 BKN250 83 75     77%   90 29.8 29.81      
Aug 25 16:53 ESE 11 10 Mostly Cloudy FEW020 SCT065 SCT090 BKN150 BKN250 82 75     79%   89 29.82 29.83      
Aug 25 15:53 E 9 5 Fog/Mist FEW020 SCT060 BKN085 BKN130 BKN250 79 75     88%   83 29.84 29.85 0 1  
Aug 25 15:46 E 9 5 Fog/Mist FEW020 SCT060 BKN085 BKN130 BKN250 79 75     88%   83 29.85   0    
Aug 25 14:53 ENE 7 10 Thunderstorms SCT011 BKN040 BKN070 BKN250 78 75     90%   80 29.87 29.89 0    
Aug 25 14:11 ESE 6 3 Thunderstorms and Rain and Fog/Mist SCT021 BKN045 OVC080 78 75     90%   80 29.87   0    
Aug 25 14:03 Calm 2 Thunderstorms and Rain and Fog/Mist BKN021 78 74     87%   80 29.87   0    
Aug 25 13:53 Calm 0.75 Thunderstorms and Heavy Rain and Fog/Mist BKN021 BKN036 OVC040 77 74     90%   79 29.87 29.88 1    
Aug 25 13:46 Calm 1.25 Thunderstorms and Heavy Rain and Fog/Mist BKN021 BKN036 OVC055 77 74     90%   79 29.88   1    
Aug 25 13:39 WSW 7 2 Thunderstorms and Rain and Fog/Mist BKN021 BKN036 OVC055 77 74     90%   79 29.88   1    
Aug 25 13:22 S 15 3 Thunderstorms and Rain and Fog/Mist BKN021 BKN036 OVC055 78 75     90%   80 29.87   0    
Aug 25 13:14   2 Thunderstorms and Rain and Fog/Mist BKN023 BKN030 OVC050 79 75     88%   83 29.87   0    
Aug 25 13:00   0.75 Thunderstorms and Heavy Rain and Fog/Mist SCT010 BKN020 OVC037 79 75     88%   83 29.86   0    
Aug 25 12:57   1.5 Thunderstorms and Heavy Rain BKN010 BKN030 BKN037 81 75     82%   87 29.86   0    
Aug 25 12:53   9 Thunderstorms BKN010 BKN035 BKN110 BKN250 82 74     77%   88 29.86 29.88      
Aug 25 12:50   10 Thunderstorms BKN010 BKN035 BKN110 BKN250 82 73     74%   88 29.86        
Aug 25 11:53 W 6 10 Thunderstorms BKN030 BKN110 BKN250 91 74     57%   101 29.86 29.87      
Aug 25 10:53 Calm 10 Mostly Cloudy SCT022 BKN030 BKN110 BKN250 88 76     68%   99 29.89 29.9      
Aug 25 09:53 WSW 5 10 Mostly Cloudy SCT030 BKN090 BKN250 86 77     75%   97 29.88 29.89      
Aug 25 08:53 W 3 10 Mostly Cloudy FEW020 SCT030 BKN150 BKN250 82 77     85%   90 29.89 29.9      
Aug 25 07:53 SW 3 10 Mostly Cloudy SCT020 SCT030 BKN150 BKN250 81 76     85%   87 29.86 29.87      
Aug 25 06:53 S 3 10 Cloudy SCT018 SCT024 SCT150 OVC250 80 76     87%   85 29.86 29.87      
Aug 25 06:46 S 3 10 Cloudy SCT018 SCT024 SCT150 OVC250 80 76     87%   85 29.86        
Aug 25 06:32 S 3 10 Cloudy BKN016 BKN024 BKN150 OVC250 80 76     87%   85 29.86        
Aug 25 05:53 S 3 10 Mostly Cloudy FEW015 FEW060 SCT120 BKN180 80 76     87%   85 29.85 29.86      
Aug 25 04:53 Calm 10 Cloudy FEW015 FEW050 BKN160 OVC250 81 76     85%   87 29.86 29.87      
Aug 25 03:53 Calm 10 Cloudy FEW015 SCT050 BKN180 OVC250 81 76     85%   87 29.87 29.88      
Aug 25 02:53 Calm 10 Cloudy FEW018 FEW050 BKN180 OVC250 80 76     87%   85 29.86 29.87      
Aug 25 02:06 SSW 5 10 Cloudy FEW018 SCT045 BKN140 OVC200 80 76     87%   85 29.86        
Aug 25 01:53 SW 5 10 Cloudy FEW018 SCT045 BKN140 OVC200 80 76     87%   85 29.86 29.87      
Aug 25 00:53 SSW 5 10 Cloudy FEW015 SCT050 OVC250 80 76     87%   85 29.89 29.9      
Aug 24 23:53 SSW 7 10 Cloudy FEW035 SCT045 BKN180 OVC250 81 76     85%   87 29.9 29.91      
Aug 24 22:53 SSW 5 10 Mostly Cloudy FEW036 SCT046 BKN250 81 75     82%   87 29.91 29.92      
Aug 24 21:53 S 7 10 Mostly Cloudy FEW030 BKN250 82 75     79%   89 29.9 29.91      
Aug 24 20:53 S 8 10 Mostly Cloudy FEW030 BKN250 83 75     77%   90 29.88 29.89      
Aug 24 19:53 SSE 9 10 Mostly Cloudy FEW035 BKN250 84 75     74%   92 29.86 29.87      
Aug 24 18:53 S 10 10 Mostly Cloudy FEW035 BKN250 87 75     68%   97 29.84 29.85      
Aug 24 17:53 SSE 10 10 Clear CLR 88 74     63%   97 29.82 29.83      
Aug 24 16:53 S 10 10 Clear CLR 90 74     59%   99 29.83 29.83      
Aug 24 15:53 SSW 8 10 Mostly Cloudy SCT035 BKN250 90 73     58%   98 29.85 29.86      
Aug 24 14:53 ESE 8 10 Mostly Cloudy SCT035 BKN250 90 73     58%   98 29.87 29.88      
Aug 24 13:53 SE 8 10 Mostly Cloudy SCT034 BKN250 88 74     63%   97 29.9 29.91      
Aug 24 12:53 7 10 Mostly Cloudy BKN030 BKN038 BKN250 89 73     59%   97 29.92 29.93      
Aug 24 11:53 5 10 Mostly Cloudy BKN015 BKN250 87 73     63%   95 29.93 29.94      
Aug 24 10:53 5 10 Mostly Cloudy SCT014 BKN050 BKN250 85 74     70%   92 29.92 29.93      
Aug 24 09:53 ENE 8 10 Mostly Cloudy FEW013 SCT019 BKN050 BKN250 83 75     77%   90 29.93 29.94      
Aug 24 08:53 NE 5 10 Mostly Cloudy FEW020 SCT027 BKN050 BKN250 82 75     79%   89 29.93 29.94      
Aug 24 07:53 NNE 6 10 Mostly Cloudy SCT020 BKN027 BKN050 BKN250 80 75     85%   85 29.92 29.93      
Aug 24 06:53 N 7 10 Mostly Cloudy SCT020 BKN050 BKN250 79 74     85%   83 29.91 29.93      
Aug 24 05:53 N 6 10 Mostly Cloudy FEW020 SCT030 SCT150 BKN250 78 74     87%   80 29.89 29.9      
Aug 24 04:53 NE 3 10 Mostly Cloudy FEW015 FEW030 SCT150 BKN250 78 73     85%   80 29.9 29.92      
Aug 24 03:53 N 3 10 Mostly Cloudy FEW015 FEW030 SCT150 BKN250 78 74     87%   80 29.91 29.92      
Aug 24 02:53 Calm 10 Mostly Cloudy FEW020 FEW030 BKN250 78 73     85%   80 29.9 29.91      
Aug 24 01:53 Calm 10 Mostly Cloudy FEW020 FEW030 BKN250 80 73     79%   84 29.9 29.91      
Aug 24 00:53 ESE 3 10 Mostly Cloudy FEW020 FEW030 BKN250 79 74     85%   83 29.89 29.91      
Aug 23 23:53 SSE 3 10 Mostly Cloudy SCT020 BKN250 80 73     79%   84 29.9 29.91      
Aug 23 22:53 SE 6 10 Mostly Cloudy FEW025 BKN250 80 74     82%   85 29.89 29.9      
Aug 23 21:53 ESE 8 10 Mostly Cloudy FEW027 BKN250 81 74     79%   86 29.9 29.91      
Aug 23 20:53 SE 8 10 Mostly Cloudy FEW016 SCT032 SCT210 BKN250 81 74     79%   86 29.88 29.89      
Aug 23 19:53 SSE 6 10 Mostly Cloudy SCT017 SCT025 BKN210 BKN250 82 75     79%   89 29.88 29.89      
Aug 23 18:53 SE 9 10 Mostly Cloudy SCT017 SCT220 BKN250 82 74     77%   88 29.86 29.87     1
Aug 23 17:53 SE 8 10 Mostly Cloudy FEW013 SCT140 SCT210 BKN250 82 76     82%   89 29.87 29.89      
Aug 23 16:53 SE 11 10 Mostly Cloudy FEW045 SCT170 BKN220 BKN250 82 75     79%   89 29.88 29.9      
Aug 23 15:53 ESE 9 10 Mostly Cloudy SCT040 SCT080 BKN140 BKN250 80 75     85%   85 29.9 29.92   1  
Aug 23 14:53 S 6 10 Mostly Cloudy SCT038 SCT060 BKN110 BKN250 79 74     85%   83 29.92 29.93 0    
Aug 23 14:06 SE 11 10 Mostly Cloudy SCT033 SCT060 BKN110 79 75     88%   83 29.92   0    
Aug 23 13:53 SE 14 9 Light Rain SCT045 BKN070 OVC085 79 75     88%   83 29.91 29.92 1    
Aug 23 13:47 ESE 13 8 Light Rain FEW055 BKN070 OVC100 81 75     84%   86 29.93   1    
Aug 23 13:39 E 14 7 Light Rain FEW050 BKN070 OVC085 80 76     87%   85 29.92   1    
Aug 23 13:22 E 13 5 Thunderstorms and Heavy Rain and Fog/Mist BKN026 BKN050 OVC070 78 75     90%   80 29.92   1    
Aug 23 13:13 NE 11 1.5 Thunderstorms and Heavy Rain and Fog/Mist BKN026 BKN030 OVC039 76 73     91%   77 29.93   1    
Aug 23 13:00   0.5 Thunderstorms and Heavy Rain and Fog BKN026 BKN030 OVC039 76 73     91%   77 29.93   0    
Aug 23 12:53   0.5 Thunderstorms and Heavy Rain and Fog FEW023 BKN030 OVC039 77 75     94%   79 29.93 29.95 0   0
Aug 23 12:48 ENE 18 0.75 Thunderstorms and Heavy Rain and Fog/Mist SCT036 BKN044 BKN250 79 75     89%   82 29.94   0    
Aug 23 12:38   1.5 Thunderstorms and Heavy Rain SCT036 BKN044 BKN250 81 76     85%   87 29.92   0    
Aug 23 12:34   7 Thunderstorms and Rain SCT036 BKN044 BKN250 84 75     74%   92 29.92   0    
Aug 23 12:18 ENE 17 10 Thunderstorms SCT036 BKN044 BKN250 88 75     66%   98 29.91        
Aug 23 11:53 S 5 10 Mostly Cloudy SCT030 BKN045 BKN250 90 74     59%   99 29.9 29.91      
Aug 23 10:53 WSW 5 10 Mostly Cloudy FEW030 SCT043 BKN100 BKN250 86 74     67%   94 29.91 29.92 0    
Aug 23 10:24 3 10 Light Rain SCT025 BKN029 BKN250 86 77     75%   97 29.91   0    
Aug 23 09:53 SSW 5 10 Mostly Cloudy SCT025 BKN029 BKN250 86 75     70%   95 29.92 29.93      
Aug 23 09:45 SSW 5 10 Mostly Cloudy SCT022 BKN029 BKN250 86 75     70%   95 29.92        
Aug 23 08:53 S 5 10 Mostly Clear FEW020 FEW040 FEW250 85 76     75%   94 29.93 29.94      
Aug 23 07:53 SSE 3 10 Mostly Clear FEW020 82 76     82%   89 29.92 29.93      
Aug 23 06:53 Calm 10 Mostly Clear FEW020 80 75     85%   85 29.91 29.92      
Aug 23 05:53 E 3 10 Partly Cloudy FEW020 SCT250 81 75     82%   87 29.9 29.91      
Aug 23 04:53 S 3 10 Mostly Clear FEW020 FEW250 80 75     85%   85 29.89 29.9      
Aug 23 03:53 S 8 10 Partly Cloudy SCT020 SCT250 81 76     85%   87 29.89 29.9      
Aug 23 02:53 SE 5 10 Mostly Clear FEW020 FEW250 81 75     82%   87 29.89 29.91      
Aug 23 01:53 ESE 5 10 Mostly Clear FEW020 FEW250 81 75     82%   87 29.91 29.92      
Aug 23 00:53 SSE 6 10 Partly Cloudy FEW020 SCT250 82 76     82%   89 29.91 29.92      
Aug 22 23:53 SSE 6 10 Mostly Clear FEW020 FEW250 83 75     77%   90 29.92 29.93      
Aug 22 22:53 S 7 10 Mostly Clear FEW020 FEW250 83 75     77%   90 29.93 29.94      
May 14 04:53 ESE 3 10 Clear   72 72     100%   74 29.96 29.97      
May 12 17:53 SE 11 10 Partly Cloudy SCT040 86 71     61%   92 29.95 29.96      
May 12 04:37 SSE 5 10 Partly Cloudy SCT016 SCT040 74 73     97%   76 29.97        
May 12 01:53 6 10 Partly Cloudy SCT030 SCT250 75 73     94%   77 29.98 29.99      
May 11 16:53 SE 16 10 Partly Cloudy SCT042 84 69     61%   88 29.94 29.95      
May 11 07:53 SSE 6 10 Mostly Clear FEW020 74 72     94%   75 30 30.01      
Jun 12 04:53 ESE 5 10 Mostly Clear FEW050 78 76     93%   80 29.9 29.91      
Jun 11 21:53 ESE 6 10 Clear   81 75     82%   87 29.91 29.92      
Jun 11 12:53 6 10 Mostly Cloudy SCT031 BKN050 BKN070 86 74     67%   94 29.93 29.94      
Jun 08 18:53 NE 8 10 Clear   86 60     42%   86 29.85 29.87      
Jun 08 03:53 ENE 5 10 Clear CLR 74 61     64%   74 29.91 29.92      
Jun 05 22:53 Calm 10 Mostly Cloudy SCT024 BKN100 BKN250 73 71     94%   74 29.74 29.75 0